AirNav   Jet Aviation Boston
 
 410 users online  

N25 Blue Heron Airport
Gallupville, New York, USA

GOING TO GALLUPVILLE?


FAA INFORMATION EFFECTIVE 29 MARCH 2018

Location

FAA Identifier: N25
Lat/Long: 42-41-50.2720N / 074-11-58.4670W
42-41.837867N / 074-11.974450W
42.6972978 / -74.1995742
(estimated)
Elevation: 1200 ft. / 366 m (estimated)
Variation: 14W (1985)
From city: 3 miles NE of GALLUPVILLE, NY
Time zone: UTC -4 (UTC -5 during Standard Time)
Zip code: 12053

Airport Operations

Airport use: Open to the public
Activation date: 12/1985
Control tower: no
ARTCC: BOSTON CENTER
FSS: BURLINGTON FLIGHT SERVICE STATION
NOTAMs facility: BTV (NOTAM-D service available)
Attendance: APR-OCT DAWN-DUSK
Wind indicator: yes
Segmented circle: no

Airport Communications

CTAF: 122.9
WX AWOS-3 at SCH (15 nm NE): 119.275 (518-399-6586)
WX ASOS at ALB (18 nm E): PHONE 518-464-6423
WX AWOS-3 at NY0 (19 nm N): 119.225 (518-762-0322)

Nearby radio navigation aids

VOR radial/distance  VOR name  Freq  Var
ALBr273/17.7ALBANY VORTAC115.3013W

 
NDB name  Hdg/Dist  Freq  Var  ID
HUNTER245/15.035614WHEU .... . ..-
JOHNSTOWN176/19.052314WJJH .--- .--- ....
PHILMONT335/34.027213WPFH .--. ..-. ....

Airport Services

Parking: tiedowns

Runway Information

Runway 9/27

Dimensions: 2600 x 70 ft. / 792 x 21 m
Surface: turf, in good condition
RUNWAY 9  RUNWAY 27
Traffic pattern: leftleft
Obstructions: 17 ft. road, 69 ft. left of centerline68 ft. trees

Airport Ownership and Management from official FAA records

Ownership: Privately-owned
Owner: NICHOLAS J. VISCIO
686 KNOX CAVE ROAD
ALTAMONT, NY 12009
Phone 518-872-2638
Manager: NICHOLAS J. VISCIO
686 KNOX CAVE ROAD
ALTAMONT, NY 12009
Phone 518-872-2638

Airport Operational Statistics

Aircraft operations: 200/year *
100% transient general aviation
* for 12-month period ending 12 September 2016

Additional Remarks

CONTACT APRT MGR FOR FIELD CONDITIONS DURING WINTER AND APRIL-MAY
RWY 27; +40 - 100 FT TREES, ACROSS THLD.

Instrument Procedures

There are no published instrument procedures at N25.

Some nearby airports with instrument procedures:

KSCH - Schenectady County Airport (15 nm NE)
KALB - Albany International Airport (18 nm E)
4B0 - South Albany Airport (18 nm SE)
NY0 - Fulton County Airport (19 nm N)
5B2 - Saratoga County Airport (26 nm NE)
 
Loc | Ops | Rwys | IFR | FBO | Links
Com | Nav | Svcs | Stats | Notes

AirNav Hotels Sweepstakes
 
Area around N25 (Blue Heron Airport)
 
Road maps at: MapQuest Bing Google
 
Aerial photo
WARNING: Photo may not be current or correct
Aerial photo of N25 (Blue Heron Airport)
Photo by Nick Viscio
looking east.

Do you have a better or more recent aerial photo of Blue Heron Airport that you would like to share? If so, please send us your photo.

 
Sectional chart

 
Airport distance calculator
Flying to Blue Heron Airport? Find the distance to fly.

From to N25

Sunrise and sunset
Times for 25-Apr-2018
 Local
(UTC-4)
 Zulu
(UTC)
Morning civil twilight05:3109:31
Sunrise06:0110:01
Sunset19:4923:49
Evening civil twilight20:1900:19

Current date and time
Zulu (UTC)  25-Apr-2018 09:44:10
Local (UTC-4)  25-Apr-2018 05:44:10
 
METAR
KSCH 
15nm NE 
250149Z 17015G21KT 10SM CLR 15/02 A3018 RMK LAST
KALB 
18nm E 
250851Z 00000KT 9SM -RA FEW036 BKN060 OVC075 09/07 A3009 RMK AO2 SLP189 P0005 60019 T00940072 57023
KNY0 
19nm N 
250916Z AUTO 11005KT 10SM SCT007 BKN049 OVC055 07/06 A3006 RMK AO2 P0001
TAF
KALB 
18nm E 
250542Z 2506/2606 16005KT 6SM -RA BR OVC040 FM250800 12005KT 6SM -RA BR OVC025 FM251400 07005KT 6SM -SHRA BR OVC035 FM260000 04004KT 4SM BR OVC015
NOTAMs
Click for the latest NOTAMs
NOTAMs are issued by the DoD/FAA and will open in a separate window not controlled by AirNav.

 

 
 

Would you like to see your business listed on this page?

 If your business provides an interesting product or service to pilots, flight crews, aircraft, or users of the Blue Heron Airport, you should consider listing it here.  To start the listing process, click on the button below
 
Add a business
 

Other Pages about Blue Heron Airport

Update a link
 
Copyright © AirNav, LLC. All rights reserved. Privacy Policy  Contact